(459858) = 2004 TC340 = 2004 TH98 = 2013 TO121

Discovered at Kitt Peak on 2004-10-05 by Spacewatch.

Orbit

Orbit type: Main Belt

Note: WebGL enabled browser required.

epoch2023-09-13.0
epoch JD2460200.5
perihelion date2022-09-22.45339
perihelion JD2459844.95339
argument of perihelion (°)135.98422
ascending node (°)195.23050
inclination (°)4.84498
eccentricity0.1676970
perihelion distance (AU)2.3067359
Tisserand w.r.t. Jupiter3.3
ΔV w.r.t. Earth (km/sec)9.7
semimajor axis (AU)2.7715097
mean anomaly (°)75.94965
mean daily motion (°/day)0.21361380
aphelion distance (AU)3.236
period (years)4.61
P-vector [x]0.87577818
P-vector [y]-0.46294045
P-vector [z]-0.13674326
Q-vector [x]0.48220357
Q-vector [y]0.82599515
Q-vector [z]0.29191049
absolute magnitude17.12
phase slope0.15
uncertainty0
referenceMPEC 2024-A55
observations used233
oppositions12
arc length (days)10268
first opposition used1995
last opposition used2024
residual rms (arc-secs)0.72
perturbers coarse indicatorM-v
perturbers precise indicator003Ek
first observation date used1995-11-23.0
last observation date used2024-01-03.0
computer nameMPCLINUX
JD of orbit computation2457429.854474
perihelion JD uncertainty (days)5.7694E-05
argument of perihelion uncertainty (°)4.0539E-05
ascending node uncertainty (°)3.7809E-05
inclination uncertainty (°)6.2265E-06
eccentricity uncertainty 7.2815E-08
perihelion distance uncertainty (AU)2.1049E-07
Minimum Orbit Intersection Distances (in AU)
for orbit epoch: 2460200.5, reference: E2023-Y18
Mercury1.9064
Venus1.58589
Earth1.29873
Mars0.93848
Jupiter2.13724
Saturn5.98226
Uranus15.2277
Neptune27.1006

Observations

236 total observations over interval: 1995 11 23.36914 – 2024 01 03.312561
These data are available for download (format description).

Date (UT) J2000 RA J2000 Dec Magn Location Ref
1995 11 23.36914 03 32 35.50 +13 58 32.7 20.9 V 691 – Steward Observatory, Kitt Peak-Spacewatch MPS 483836
1995 11 23.39065 03 32 34.32 +13 58 27.2   691 – Steward Observatory, Kitt Peak-Spacewatch MPS 483836
1995 11 23.41230 03 32 33.15 +13 58 22.0   691 – Steward Observatory, Kitt Peak-Spacewatch MPS 483836
2004 10 05.26187 02 02 37.44 +11 10 27.8 20.4 V 691 – Steward Observatory, Kitt Peak-Spacewatch MPS 117804
2004 10 05.29103 02 02 36.17 +11 10 17.2 20.4 V 691 – Steward Observatory, Kitt Peak-Spacewatch MPS 117804
2004 10 05.32224 02 02 34.81 +11 10 05.3 20.4 V 691 – Steward Observatory, Kitt Peak-Spacewatch MPS 117804
2004 10 09.26938 01 59 43.20 +10 44 41.7 20.4 V 691 – Steward Observatory, Kitt Peak-Spacewatch MPS 117804
2004 10 09.29647 01 59 41.91 +10 44 31.0 20.7 V 691 – Steward Observatory, Kitt Peak-Spacewatch MPS 117804
2004 10 09.32376 01 59 40.64 +10 44 20.2 20.5 V 691 – Steward Observatory, Kitt Peak-Spacewatch MPS 117804
2004 10 13.25324 01 56 38.12 +10 18 00.1 20.4 V 691 – Steward Observatory, Kitt Peak-Spacewatch MPS 118717
2004 10 13.28278 01 56 36.64 +10 17 48.1 20.1 V 691 – Steward Observatory, Kitt Peak-Spacewatch MPS 118717
2004 10 13.30979 01 56 35.31 +10 17 37.3 20.2 V 691 – Steward Observatory, Kitt Peak-Spacewatch MPS 118717
2006 01 31.19475 08 01 15.26 +13 44 51.3   291 – LPL/Spacewatch II MPS 485398
2006 01 31.20226 08 01 14.92 +13 44 53.4   291 – LPL/Spacewatch II MPS 485398
2006 01 31.21111 08 01 14.44 +13 44 55.2   291 – LPL/Spacewatch II MPS 485398
2011 01 30.40349 10 07 40.583 +05 57 37.25 22.3 w F51 – Pan-STARRS 1, Haleakala MPS 483836
2011 01 30.41829 10 07 39.926 +05 57 40.78 22.2 w F51 – Pan-STARRS 1, Haleakala MPS 483836
2011 01 30.43437 10 07 39.225 +05 57 44.54 22.1 w F51 – Pan-STARRS 1, Haleakala MPS 483836
2011 01 30.44914 10 07 38.579 +05 57 48.13 22.1 w F51 – Pan-STARRS 1, Haleakala MPS 483836
2011 02 04.46426 10 03 56.724 +06 18 44.01 22.3 w F51 – Pan-STARRS 1, Haleakala MPS 483836
2011 02 04.47866 10 03 56.046 +06 18 47.86 22.3 w F51 – Pan-STARRS 1, Haleakala MPS 483836
2011 02 04.49309 10 03 55.348 +06 18 51.80 22.1 w F51 – Pan-STARRS 1, Haleakala MPS 483836
2011 02 05.43804 10 03 11.810 +06 23 04.57 22.5 w F51 – Pan-STARRS 1, Haleakala MPS 485398
2011 02 05.46676 10 03 10.452 +06 23 12.19 22.1 w F51 – Pan-STARRS 1, Haleakala MPS 485398
2011 02 05.48110 10 03 09.747 +06 23 16.02 22.3 w F51 – Pan-STARRS 1, Haleakala MPS 485398
2011 03 02.32463 09 43 14.70 +08 30 07.3 19.9 V G96 – Mt. Lemmon Survey MPS 485398
2011 03 02.33205 09 43 14.44 +08 30 10.2 21.7 V G96 – Mt. Lemmon Survey MPS 485398
2011 03 02.33943 09 43 14.12 +08 30 13.0 21.6 V G96 – Mt. Lemmon Survey MPS 485398
2011 03 02.34689 09 43 13.76 +08 30 14.9 21.5 V G96 – Mt. Lemmon Survey MPS 485398
2012 05 21.35433 14 27 51.875 -10 40 27.82 21.2 w F51 – Pan-STARRS 1, Haleakala MPS 485398
2012 05 21.36885 14 27 51.212 -10 40 23.97 21.4 w F51 – Pan-STARRS 1, Haleakala MPS 485398
2012 05 21.38337 14 27 50.576 -10 40 20.03 21.4 w F51 – Pan-STARRS 1, Haleakala MPS 485398
2012 05 21.39789 14 27 49.922 -10 40 16.32 21.2 w F51 – Pan-STARRS 1, Haleakala MPS 485398
2013 09 16.29189 23 47 03.48 +01 41 32.7 19.4 V G96 – Mt. Lemmon Survey MPS 483836
2013 09 16.29752 23 47 03.26 +01 41 30.4 19.4 V G96 – Mt. Lemmon Survey MPS 483836
2013 09 16.30319 23 47 02.95 +01 41 27.8 19.1 V G96 – Mt. Lemmon Survey MPS 483836
2013 09 16.30884 23 47 02.73 +01 41 26.0 19.0 V G96 – Mt. Lemmon Survey MPS 483836
2013 09 25.31223 23 40 28.63 +00 33 43.7 19.4 V G96 – Mt. Lemmon Survey MPS 482570
2013 09 25.31868 23 40 28.33 +00 33 40.6 19.6 V G96 – Mt. Lemmon Survey MPS 482570
2013 09 25.32515 23 40 28.05 +00 33 37.9 19.4 V G96 – Mt. Lemmon Survey MPS 482570
2013 09 25.33161 23 40 27.76 +00 33 35.0 19.4 V G96 – Mt. Lemmon Survey MPS 482570
2013 10 01.22153 23 36 28.14 -00 09 49.0 20.4 V 703 – Catalina Sky Survey MPS 480573
2013 10 01.22655 23 36 28.00 -00 09 50.4 20.5 V 703 – Catalina Sky Survey MPS 480573
2013 10 01.23162 23 36 27.69 -00 09 52.9 21.2 V 703 – Catalina Sky Survey MPS 480573
2013 10 01.23664 23 36 27.34 -00 09 54.7 19.9 V 703 – Catalina Sky Survey MPS 480573
2013 10 01.24163 23 36 27.24 -00 09 56.1 20.4 V 703 – Catalina Sky Survey MPS 480573
2013 10 04.32863 23 34 32.460 -00 31 41.01 20.1 i F51 – Pan-STARRS 1, Haleakala MPS 480573
2013 10 04.33456 23 34 32.223 -00 31 43.52 19.8 i F51 – Pan-STARRS 1, Haleakala MPS 480573
2013 10 04.33752 23 34 32.125 -00 31 44.53 20.1 i F51 – Pan-STARRS 1, Haleakala MPS 480573
2013 10 04.34049 23 34 32.017 -00 31 45.77 20.4 i F51 – Pan-STARRS 1, Haleakala MPS 480573
2013 10 04.34347 23 34 31.905 -00 31 46.95 20.3 i F51 – Pan-STARRS 1, Haleakala MPS 480573
2013 10 04.35628 23 34 31.414 -00 31 52.30 19.9 i F51 – Pan-STARRS 1, Haleakala MPS 480573
2013 10 04.35927 23 34 31.331 -00 31 53.27 19.4 i F51 – Pan-STARRS 1, Haleakala MPS 480573
2013 10 04.36523 23 34 31.074 -00 31 55.97 19.9 i F51 – Pan-STARRS 1, Haleakala MPS 480573
2013 10 04.36819 23 34 30.943 -00 31 57.37 20.0 i F51 – Pan-STARRS 1, Haleakala MPS 480573
2013 10 04.37115 23 34 30.844 -00 31 58.47 20.1 i F51 – Pan-STARRS 1, Haleakala MPS 480573
2013 10 04.37411 23 34 30.732 -00 31 59.68 20.1 i F51 – Pan-STARRS 1, Haleakala MPS 480573
2013 10 05.29076 23 33 58.649 -00 38 15.86 20.3 z F51 – Pan-STARRS 1, Haleakala MPS 480573
2013 10 05.29373 23 33 58.536 -00 38 17.02 20.4 z F51 – Pan-STARRS 1, Haleakala MPS 480573
2013 10 05.29672 23 33 58.427 -00 38 18.25 20.4 z F51 – Pan-STARRS 1, Haleakala MPS 480573
2013 10 05.30860 23 33 57.995 -00 38 23.10 20.3 z F51 – Pan-STARRS 1, Haleakala MPS 480573
2013 10 05.31157 23 33 57.882 -00 38 24.27 20.4 z F51 – Pan-STARRS 1, Haleakala MPS 480573
2013 10 21.30327 23 27 26.615 -02 08 28.28 20.4 r F51 – Pan-STARRS 1, Haleakala MPS 482570
2013 10 21.37118 23 27 25.564 -02 08 45.71 20.3 i F51 – Pan-STARRS 1, Haleakala MPS 482570
2013 10 21.38255 23 27 25.400 -02 08 48.68 20.5 i F51 – Pan-STARRS 1, Haleakala MPS 482570
2016 02 10.52008 11 55 57.548 -02 43 10.60 21.9 w F51 – Pan-STARRS 1, Haleakala MPS 679217
2016 02 10.53303 11 55 57.223 -02 43 08.08 21.9 w F51 – Pan-STARRS 1, Haleakala MPS 679217
2016 02 10.54600 11 55 56.879 -02 43 05.93 21.9 w F51 – Pan-STARRS 1, Haleakala MPS 679217
2016 03 11.33038 11 37 01.66 -00 20 25.0 21.4 V G96 – Mt. Lemmon Survey MPS 692595
2016 03 11.33347 11 37 01.51 -00 20 24.0 21.6 V G96 – Mt. Lemmon Survey MPS 692595
2016 03 11.33654 11 37 01.37 -00 20 22.6 21.5 V G96 – Mt. Lemmon Survey MPS 692595
2016 03 11.33962 11 37 01.23 -00 20 21.8 21.7 V G96 – Mt. Lemmon Survey MPS 692595
2016 03 13.31572 11 35 28.50 -00 08 11.6 21.5 V G96 – Mt. Lemmon Survey MPS 695945
2016 03 13.32154 11 35 28.24 -00 08 09.1 21.7 V G96 – Mt. Lemmon Survey MPS 695945
2016 03 13.32735 11 35 27.95 -00 08 06.9 21.8 V G96 – Mt. Lemmon Survey MPS 695945
2016 03 13.33316 11 35 27.69 -00 08 05.1 21.2 V G96 – Mt. Lemmon Survey MPS 695945
2018 11 01.34110 03 12 25.71 +13 49 23.4 20.7 G G96 – Mt. Lemmon Survey MPS 937013
2018 11 01.34667 03 12 25.41 +13 49 21.8 20.6 G G96 – Mt. Lemmon Survey MPS 937013
2018 11 01.35223 03 12 25.10 +13 49 20.1 20.9 G G96 – Mt. Lemmon Survey MPS 937013
2018 11 01.35778 03 12 24.81 +13 49 17.9 20.9 G G96 – Mt. Lemmon Survey MPS 937013
2018 11 08.69661 03 05 57.23 +13 09 14.8 20.9 R D29 – Purple Mountain Observatory, XuYi Station MPS 942442
2018 11 08.71075 03 05 56.43 +13 09 10.2 20.5 R D29 – Purple Mountain Observatory, XuYi Station MPS 942442
2018 11 08.72489 03 05 55.66 +13 09 05.0 20.1 R D29 – Purple Mountain Observatory, XuYi Station MPS 942442
2018 11 10.32124 03 04 30.56 +13 00 33.3 20.2 G G96 – Mt. Lemmon Survey MPS 940311
2018 11 10.32639 03 04 30.27 +13 00 31.9 20.2 G G96 – Mt. Lemmon Survey MPS 940311
2018 11 10.33155 03 04 30.00 +13 00 30.3 20.6 G G96 – Mt. Lemmon Survey MPS 940311
2018 11 10.33674 03 04 29.68 +13 00 28.7 20.3 G G96 – Mt. Lemmon Survey MPS 940311
2018 11 10.47855 03 04 22.104 +12 59 44.41 20.5 w F52 – Pan-STARRS 2, Haleakala MPS 940311
2018 11 10.49145 03 04 21.394 +12 59 40.18 20.4 w F52 – Pan-STARRS 2, Haleakala MPS 940311
2018 11 10.50383 03 04 20.707 +12 59 36.14 20.4 w F52 – Pan-STARRS 2, Haleakala MPS 940311
